Time,TemperatureF,DewpointF,PressureIn,WindDirection,WindDirectionDegrees,WindSpeedMPH,WindSpeedGustMPH,Humidity,HourlyPrecipIn,Conditions,Clouds,dailyrainin,SolarRadiationWatts/m^2,SoftwareType,DateUTC
2013-03-14 00:21:00,20.0,7.0,-100.00,NNW,339,3.0,9.0,57,0.00,,,0.00,0.000000,,2013-03-14 08:21:00,
2013-03-14 00:32:00,20.0,7.0,-100.00,NNW,339,3.0,9.0,57,0.00,,,0.00,0.000000,,2013-03-14 08:32:00,
2013-03-14 00:41:00,20.0,7.0,-100.00,NNW,339,3.0,9.0,57,0.00,,,0.00,0.000000,,2013-03-14 08:41:00,
2013-03-14 00:51:00,20.0,7.0,-100.00,NNW,339,3.0,9.0,57,0.00,,,0.00,0.000000,,2013-03-14 08:51:00,
2013-03-14 01:22:00,19.0,6.0,-100.00,North,350,2.0,7.0,57,0.00,,,0.00,0.000000,,2013-03-14 09:22:00,
2013-03-14 01:32:00,19.0,6.0,-100.00,North,350,2.0,7.0,57,0.00,,,0.00,0.000000,,2013-03-14 09:32:00,
2013-03-14 01:42:00,19.0,6.0,-100.00,North,350,2.0,7.0,57,0.00,,,0.00,0.000000,,2013-03-14 09:42:00,
2013-03-14 01:51:00,19.0,6.0,-100.00,North,350,2.0,7.0,57,0.00,,,0.00,0.000000,,2013-03-14 09:51:00,
2013-03-14 02:12:00,19.0,4.0,-100.00,NNW,345,2.0,6.0,52,0.00,,,-99.99,0.000000,,2013-03-14 10:12:00,
2013-03-14 02:22:00,19.0,4.0,-100.00,NNW,345,2.0,6.0,52,0.00,,,-99.99,0.000000,,2013-03-14 10:22:00,
2013-03-14 02:32:00,19.0,4.0,-100.00,NNW,345,2.0,6.0,52,0.00,,,-99.99,0.000000,,2013-03-14 10:32:00,
2013-03-14 02:42:00,19.0,4.0,-100.00,NNW,345,2.0,6.0,52,0.00,,,-99.99,0.000000,,2013-03-14 10:42:00,
2013-03-14 02:52:00,19.0,4.0,-100.00,NNW,345,2.0,6.0,52,0.00,,,-99.99,0.000000,,2013-03-14 10:52:00,
2013-03-14 03:12:00,19.0,6.0,-100.00,North,350,3.0,7.0,56,0.00,,,0.00,0.000000,,2013-03-14 11:12:00,
2013-03-14 03:22:00,19.0,6.0,-100.00,North,350,3.0,7.0,56,0.00,,,0.00,0.000000,,2013-03-14 11:22:00,
2013-03-14 03:32:00,19.0,6.0,-100.00,North,350,3.0,7.0,56,0.00,,,0.00,0.000000,,2013-03-14 11:32:00,
2013-03-14 03:42:00,19.0,6.0,-100.00,North,350,3.0,7.0,56,0.00,,,0.00,0.000000,,2013-03-14 11:42:00,
2013-03-14 03:52:00,19.0,6.0,-100.00,North,350,3.0,7.0,56,0.00,,,0.00,0.000000,,2013-03-14 11:52:00,
2013-03-14 04:12:00,17.0,9.0,-100.00,North,356,3.0,11.0,70,0.00,,,0.00,0.000000,,2013-03-14 12:12:00,
2013-03-14 04:22:00,17.0,9.0,-100.00,North,356,3.0,11.0,70,0.00,,,0.00,0.000000,,2013-03-14 12:22:00,
2013-03-14 04:33:00,17.0,9.0,-100.00,North,356,3.0,11.0,70,0.00,,,0.00,0.000000,,2013-03-14 12:33:00,
2013-03-14 04:42:00,17.0,9.0,-100.00,North,356,3.0,11.0,70,0.00,,,0.00,0.000000,,2013-03-14 12:42:00,
2013-03-14 04:51:00,17.0,9.0,-100.00,North,356,3.0,11.0,70,0.00,,,0.00,0.000000,,2013-03-14 12:51:00,
2013-03-14 05:12:00,16.0,10.0,-100.00,North,355,3.0,10.0,76,0.00,,,0.00,0.000000,,2013-03-14 13:12:00,
2013-03-14 05:22:00,16.0,10.0,-100.00,North,355,3.0,10.0,76,0.00,,,0.00,0.000000,,2013-03-14 13:22:00,
2013-03-14 05:32:00,16.0,10.0,-100.00,North,355,3.0,10.0,76,0.00,,,0.00,0.000000,,2013-03-14 13:32:00,
2013-03-14 05:42:00,16.0,10.0,-100.00,North,355,3.0,10.0,76,0.00,,,0.00,0.000000,,2013-03-14 13:42:00,
2013-03-14 05:52:00,16.0,10.0,-100.00,North,355,3.0,10.0,76,0.00,,,0.00,0.000000,,2013-03-14 13:52:00,
2013-03-14 06:22:00,15.0,8.0,-100.00,North,355,3.0,11.0,73,0.00,,,0.00,0.000000,,2013-03-14 14:22:00,
2013-03-14 06:32:00,15.0,8.0,-100.00,North,355,3.0,11.0,73,0.00,,,0.00,0.000000,,2013-03-14 14:32:00,
2013-03-14 06:42:00,15.0,8.0,-100.00,North,355,3.0,11.0,73,0.00,,,0.00,0.000000,,2013-03-14 14:42:00,
2013-03-14 06:52:00,15.0,8.0,-100.00,North,355,3.0,11.0,73,0.00,,,0.00,0.000000,,2013-03-14 14:52:00,
2013-03-14 07:12:00,15.0,7.0,-100.00,North,354,4.0,9.0,71,0.00,,,0.00,0.000000,,2013-03-14 15:12:00,
2013-03-14 07:22:00,15.0,7.0,-100.00,North,354,4.0,9.0,71,0.00,,,0.00,0.000000,,2013-03-14 15:22:00,
2013-03-14 07:32:00,15.0,7.0,-100.00,North,354,4.0,9.0,71,0.00,,,0.00,0.000000,,2013-03-14 15:32:00,
2013-03-14 07:42:00,15.0,7.0,-100.00,North,354,4.0,9.0,71,0.00,,,0.00,0.000000,,2013-03-14 15:42:00,
2013-03-14 07:52:00,15.0,7.0,-100.00,North,354,4.0,9.0,71,0.00,,,0.00,0.000000,,2013-03-14 15:52:00,
2013-03-14 08:22:00,15.0,7.0,-100.00,North,354,5.0,13.0,70,0.00,,,0.00,0.000000,,2013-03-14 16:22:00,
2013-03-14 08:32:00,15.0,7.0,-100.00,North,354,5.0,13.0,70,0.00,,,0.00,0.000000,,2013-03-14 16:32:00,
2013-03-14 08:42:00,15.0,7.0,-100.00,North,354,5.0,13.0,70,0.00,,,0.00,0.000000,,2013-03-14 16:42:00,
2013-03-14 08:52:00,15.0,7.0,-100.00,North,354,5.0,13.0,70,0.00,,,0.00,0.000000,,2013-03-14 16:52:00,
2013-03-14 09:12:00,15.0,6.0,-100.00,North,2,4.0,14.0,66,0.00,,,0.00,5.000000,,2013-03-14 17:12:00,
2013-03-14 09:23:00,15.0,6.0,-100.00,North,2,4.0,14.0,66,0.00,,,0.00,5.000000,,2013-03-14 17:23:00,
2013-03-14 09:32:00,15.0,6.0,-100.00,North,2,4.0,14.0,66,0.00,,,0.00,5.000000,,2013-03-14 17:32:00,
2013-03-14 09:42:00,15.0,6.0,-100.00,North,2,4.0,14.0,66,0.00,,,0.00,5.000000,,2013-03-14 17:42:00,
2013-03-14 09:52:00,15.0,6.0,-100.00,North,2,4.0,14.0,66,0.00,,,0.00,5.000000,,2013-03-14 17:52:00,
2013-03-14 10:22:00,16.0,5.0,-100.00,North,1,4.0,14.0,61,0.00,,,0.00,30.000000,,2013-03-14 18:22:00,
2013-03-14 10:32:00,16.0,5.0,-100.00,North,1,4.0,14.0,61,0.00,,,0.00,30.000000,,2013-03-14 18:32:00,
2013-03-14 10:42:00,16.0,5.0,-100.00,North,1,4.0,14.0,61,0.00,,,0.00,30.000000,,2013-03-14 18:42:00,
2013-03-14 10:52:00,16.0,5.0,-100.00,North,1,4.0,14.0,61,0.00,,,0.00,30.000000,,2013-03-14 18:52:00,
2013-03-14 11:22:00,17.0,9.0,-100.00,North,2,5.0,12.0,71,0.00,,,0.00,104.000000,,2013-03-14 19:22:00,
2013-03-14 11:32:00,17.0,9.0,-100.00,North,2,5.0,12.0,71,0.00,,,0.00,104.000000,,2013-03-14 19:32:00,
2013-03-14 11:42:00,17.0,9.0,-100.00,North,2,5.0,12.0,71,0.00,,,0.00,104.000000,,2013-03-14 19:42:00,
2013-03-14 11:52:00,17.0,9.0,-100.00,North,2,5.0,12.0,71,0.00,,,0.00,104.000000,,2013-03-14 19:52:00,
2013-03-14 13:22:00,21.0,14.0,-100.00,North,11,3.0,11.0,73,-99.99,,,0.00,269.000000,,2013-03-14 21:22:00,
2013-03-14 13:32:00,21.0,14.0,-100.00,North,11,3.0,11.0,73,-99.99,,,0.00,269.000000,,2013-03-14 21:32:00,
2013-03-14 13:43:00,21.0,14.0,-100.00,North,11,3.0,11.0,73,-99.99,,,0.00,269.000000,,2013-03-14 21:43:00,
2013-03-14 13:52:00,21.0,14.0,-100.00,North,11,3.0,11.0,73,-99.99,,,0.00,269.000000,,2013-03-14 21:52:00,
2013-03-14 14:12:00,25.0,14.0,-100.00,North,350,5.0,12.0,63,0.00,,,0.00,442.000000,,2013-03-14 22:12:00,
2013-03-14 14:23:00,25.0,14.0,-100.00,North,350,5.0,12.0,63,0.00,,,0.00,442.000000,,2013-03-14 22:23:00,
2013-03-14 14:32:00,25.0,14.0,-100.00,North,350,5.0,12.0,63,0.00,,,0.00,442.000000,,2013-03-14 22:32:00,
2013-03-14 14:42:00,25.0,14.0,-100.00,North,350,5.0,12.0,63,0.00,,,0.00,442.000000,,2013-03-14 22:42:00,
2013-03-14 14:52:00,25.0,14.0,-100.00,North,350,5.0,12.0,63,0.00,,,0.00,442.000000,,2013-03-14 22:52:00,
2013-03-14 15:12:00,23.0,12.0,-100.00,North,2,3.0,9.0,62,0.00,,,0.00,333.000000,,2013-03-14 23:12:00,
2013-03-14 15:22:00,23.0,12.0,-100.00,North,2,3.0,9.0,62,0.00,,,0.00,333.000000,,2013-03-14 23:22:00,
2013-03-14 15:33:00,23.0,12.0,-100.00,North,2,3.0,9.0,62,0.00,,,0.00,333.000000,,2013-03-14 23:33:00,
2013-03-14 15:42:00,23.0,12.0,-100.00,North,2,3.0,9.0,62,0.00,,,0.00,333.000000,,2013-03-14 23:42:00,
2013-03-14 15:52:00,23.0,12.0,-100.00,North,2,3.0,9.0,62,0.00,,,0.00,333.000000,,2013-03-14 23:52:00,
2013-03-14 16:22:00,24.0,16.0,-100.00,North,8,3.0,8.0,70,0.00,,,-99.99,242.000000,,2013-03-15 00:22:00,
2013-03-14 16:32:00,24.0,16.0,-100.00,North,8,3.0,8.0,70,0.00,,,-99.99,242.000000,,2013-03-15 00:32:00,
2013-03-14 16:42:00,24.0,16.0,-100.00,North,8,3.0,8.0,70,0.00,,,-99.99,242.000000,,2013-03-15 00:42:00,
2013-03-14 16:52:00,24.0,16.0,-100.00,North,8,3.0,8.0,70,0.00,,,-99.99,242.000000,,2013-03-15 00:52:00,
2013-03-14 17:22:00,27.0,16.0,-100.00,North,350,3.0,11.0,62,0.00,,,0.00,341.000000,,2013-03-15 01:22:00,
2013-03-14 17:32:00,27.0,16.0,-100.00,North,350,3.0,11.0,62,0.00,,,0.00,341.000000,,2013-03-15 01:32:00,
2013-03-14 17:42:00,27.0,16.0,-100.00,North,350,3.0,11.0,62,0.00,,,0.00,341.000000,,2013-03-15 01:42:00,
2013-03-14 17:52:00,27.0,16.0,-100.00,North,350,3.0,11.0,62,0.00,,,0.00,341.000000,,2013-03-15 01:52:00,
2013-03-14 18:12:00,23.0,13.0,-100.00,North,3,3.0,8.0,66,0.00,,,0.00,166.000000,,2013-03-15 02:12:00,
2013-03-14 18:22:00,23.0,13.0,-100.00,North,3,3.0,8.0,66,0.00,,,0.00,166.000000,,2013-03-15 02:22:00,
2013-03-14 18:42:00,23.0,13.0,-100.00,North,3,3.0,8.0,66,0.00,,,0.00,166.000000,,2013-03-15 02:42:00,
2013-03-14 18:51:00,23.0,13.0,-100.00,North,3,3.0,8.0,66,0.00,,,0.00,166.000000,,2013-03-15 02:51:00,
2013-03-14 19:22:00,21.0,11.0,-100.00,NNE,33,1.0,9.0,64,0.00,,,0.00,43.000000,,2013-03-15 03:22:00,
2013-03-14 19:32:00,21.0,11.0,-100.00,NNE,33,1.0,9.0,64,0.00,,,0.00,43.000000,,2013-03-15 03:32:00,
2013-03-14 19:42:00,21.0,11.0,-100.00,NNE,33,1.0,9.0,64,0.00,,,0.00,43.000000,,2013-03-15 03:42:00,
2013-03-14 19:52:00,21.0,11.0,-100.00,NNE,33,1.0,9.0,64,0.00,,,0.00,43.000000,,2013-03-15 03:52:00,
2013-03-14 20:12:00,20.0,10.0,-100.00,NNW,341,1.0,6.0,65,0.00,,,0.00,33.000000,,2013-03-15 04:12:00,
2013-03-14 20:22:00,20.0,10.0,-100.00,NNW,341,1.0,6.0,65,0.00,,,0.00,33.000000,,2013-03-15 04:22:00,
2013-03-14 20:32:00,20.0,10.0,-100.00,NNW,341,1.0,6.0,65,0.00,,,0.00,33.000000,,2013-03-15 04:32:00,
2013-03-14 20:42:00,20.0,10.0,-100.00,NNW,341,1.0,6.0,65,0.00,,,0.00,33.000000,,2013-03-15 04:42:00,
2013-03-14 20:52:00,20.0,10.0,-100.00,NNW,341,1.0,6.0,65,0.00,,,0.00,33.000000,,2013-03-15 04:52:00,
2013-03-14 21:22:00,17.0,10.0,-100.00,NNE,21,1.0,6.0,72,0.00,,,0.00,2.000000,,2013-03-15 05:22:00,
2013-03-14 21:32:00,17.0,10.0,-100.00,NNE,21,1.0,6.0,72,0.00,,,0.00,2.000000,,2013-03-15 05:32:00,
2013-03-14 21:42:00,17.0,10.0,-100.00,NNE,21,1.0,6.0,72,0.00,,,0.00,2.000000,,2013-03-15 05:42:00,
2013-03-14 21:52:00,17.0,10.0,-100.00,NNE,21,1.0,6.0,72,0.00,,,0.00,2.000000,,2013-03-15 05:52:00,
2013-03-14 22:12:00,15.0,9.0,-100.00,NNE,24,1.0,6.0,77,0.00,,,0.00,0.000000,,2013-03-15 06:12:00,
2013-03-14 22:22:00,15.0,9.0,-100.00,NNE,24,1.0,6.0,77,0.00,,,0.00,0.000000,,2013-03-15 06:22:00,
2013-03-14 22:32:00,15.0,9.0,-100.00,NNE,24,1.0,6.0,77,0.00,,,0.00,0.000000,,2013-03-15 06:32:00,
2013-03-14 22:42:00,15.0,9.0,-100.00,NNE,24,1.0,6.0,77,0.00,,,0.00,0.000000,,2013-03-15 06:42:00,
2013-03-14 22:52:00,15.0,9.0,-100.00,NNE,24,1.0,6.0,77,0.00,,,0.00,0.000000,,2013-03-15 06:52:00,
2013-03-14 23:12:00,15.0,11.0,-100.00,NNE,14,2.0,4.0,82,0.00,,,0.00,0.000000,,2013-03-15 07:12:00,
2013-03-14 23:22:00,15.0,11.0,-100.00,NNE,14,2.0,4.0,82,0.00,,,0.00,0.000000,,2013-03-15 07:22:00,
2013-03-14 23:32:00,15.0,11.0,-100.00,NNE,14,2.0,4.0,82,0.00,,,0.00,0.000000,,2013-03-15 07:32:00,
2013-03-14 23:42:00,15.0,11.0,-100.00,NNE,14,2.0,4.0,82,0.00,,,0.00,0.000000,,2013-03-15 07:42:00,
2013-03-14 23:52:00,15.0,11.0,-100.00,NNE,14,2.0,4.0,82,0.00,,,0.00,0.000000,,2013-03-15 07:52:00,